| time (UTC) | temp F | wind direction | speed knots | gust knots | rain 1hr in | rain 24hr in | rain mn in | humidity % | barometer mb |
| 20260906174826 | 87 | 130 | 1.7 | 4.3 | 0.00 | 0.00 | 0.00 | 74 | 1010.4 |
| 20260906174320 | 86 | 187 | 1.7 | 4.3 | 0.00 | 0.00 | 0.00 | 74 | 1010.4 |
| 20260906174033 | 86 | 132 | 0.9 | 4.3 | 0.00 | 0.00 | 0.00 | 73 | 1010.6 |
| 20260906173308 | 86 | 100 | 0.9 | 3.5 | 0.00 | 0.00 | 0.00 | 73 | 1010.6 |
| 20260906172805 | 86 | 192 | 0.9 | 3.5 | 0.00 | 0.00 | 0.00 | 73 | 1010.7 |
| 20260906172252 | 87 | 223 | 0.9 | 3.5 | 0.00 | 0.00 | 0.00 | 72 | 1010.7 |
| 20260906172020 | 87 | 143 | 1.7 | 3.5 | 0.00 | 0.00 | 0.00 | 73 | 1010.7 |
| 20260906171250 | 87 | 178 | 1.7 | 3.5 | 0.00 | 0.00 | 0.00 | 72 | 1010.7 |
| 20260906170741 | 87 | 121 | 0.9 | 6.1 | 0.00 | 0.00 | 0.00 | 72 | 1010.7 |
| 20260906170728 | 87 | 196 | 1.7 | 6.1 | 0.00 | 0.00 | 0.00 | 72 | 1010.7 |
| 20260906165721 | 86 | 157 | 1.7 | 6.1 | 0.00 | 0.00 | 0.00 | 73 | 1010.9 |
| 20260906165223 | 86 | 130 | 1.7 | 4.3 | 0.00 | 0.00 | 0.00 | 74 | 1010.9 |
| 20260906164714 | 85 | 112 | 1.7 | 4.3 | 0.00 | 0.00 | 0.00 | 76 | 1010.9 |
| 20260906164434 | 85 | 105 | 1.7 | 6.1 | 0.00 | 0.00 | 0.00 | 76 | 1011.0 |
| 20260906163702 | 85 | 140 | 1.7 | 6.1 | 0.00 | 0.00 | 0.00 | 75 | 1010.9 |
| 20260906163157 | 85 | 110 | 1.7 | 6.1 | 0.00 | 0.00 | 0.00 | 75 | 1010.9 |
| 20260906162650 | 85 | 173 | 0.9 | 4.3 | 0.00 | 0.00 | 0.00 | 75 | 1011.0 |
| 20260906162140 | 85 | 106 | 1.7 | 4.3 | 0.00 | 0.00 | 0.00 | 75 | 1011.0 |
| 20260906161638 | 85 | 107 | 2.6 | 7.8 | 0.00 | 0.00 | 0.00 | 74 | 1010.9 |
| 20260906161132 | 85 | 176 | 2.6 | 7.8 | 0.00 | 0.00 | 0.00 | 74 | 1010.6 |
| 20260906160626 | 85 | 139 | 1.7 | 5.2 | 0.00 | 0.00 | 0.00 | 74 | 1010.7 |
| 20260906160120 | 86 | 158 | 1.7 | 4.3 | 0.00 | 0.00 | 0.00 | 74 | 1010.7 |
| 20260906155608 | 86 | 172 | 1.7 | 7.8 | 0.00 | 0.00 | 0.00 | 74 | 1010.9 |
| 20260906155111 | 85 | 196 | 1.7 | 7.8 | 0.00 | 0.00 | 0.00 | 74 | 1010.9 |
| 20260906154603 | 85 | 82 | 0.9 | 3.5 | 0.00 | 0.00 | 0.00 | 76 | 1010.9 |
| 20260906154102 | 85 | 81 | 1.7 | 5.2 | 0.00 | 0.00 | 0.00 | 77 | 1010.8 |
| 20260906153601 | 84 | 103 | 1.7 | 5.2 | 0.00 | 0.00 | 0.00 | 77 | 1010.8 |
| 20260906153104 | 84 | 131 | 1.7 | 6.1 | 0.00 | 0.00 | 0.00 | 79 | 1010.8 |
| 20260906152824 | 84 | 80 | 0.9 | 6.1 | 0.00 | 0.00 | 0.00 | 79 | 1010.9 |
| 20260906152100 | 83 | 129 | 0.9 | 4.3 | 0.00 | 0.00 | 0.00 | 80 | 1010.9 |
| 20260906151556 | 83 | 165 | 1.7 | 3.5 | 0.00 | 0.00 | 0.00 | 81 | 1010.9 |
| 20260906151053 | 83 | 98 | 1.7 | 3.5 | 0.00 | 0.00 | 0.00 | 81 | 1010.8 |
| 20260906150552 | 83 | 126 | 1.7 | 3.5 | 0.00 | 0.00 | 0.00 | 81 | 1010.8 |
| 20260906150052 | 83 | 163 | 1.7 | 4.3 | 0.00 | 0.00 | 0.00 | 81 | 1010.8 |
| 20260906145552 | 83 | 157 | 1.7 | 6.1 | 0.00 | 0.00 | 0.00 | 82 | 1010.7 |
| 20260906145041 | 82 | 103 | 2.6 | 6.1 | 0.00 | 0.00 | 0.00 | 82 | 1010.7 |
| 20260906144538 | 82 | 149 | 2.6 | 6.1 | 0.00 | 0.00 | 0.00 | 84 | 1010.6 |
| 20260906144042 | 81 | 139 | 2.6 | 6.1 | 0.00 | 0.00 | 0.00 | 86 | 1010.7 |
| 20260906143803 | 81 | 133 | 2.6 | 9.6 | 0.00 | 0.00 | 0.00 | 87 | 1010.7 |
| 20260906143301 | 81 | 144 | 2.6 | 9.6 | 0.00 | 0.00 | 0.00 | 88 | 1010.6 |
| 20260906142537 | 80 | 142 | 1.7 | 5.2 | 0.00 | 0.00 | 0.00 | 91 | 1011.0 |
| 20260906142037 | 80 | 143 | 1.7 | 4.3 | 0.00 | 0.00 | 0.00 | 93 | 1011.0 |
| 20260906141537 | 79 | 140 | 1.7 | 4.3 | 0.00 | 0.00 | 0.00 | 95 | 1010.9 |
| 20260906141035 | 79 | 175 | 1.7 | 5.2 | 0.00 | 0.00 | 0.00 | 96 | 1011.3 |
| 20260906140535 | 78 | 130 | 1.7 | 5.2 | 0.00 | 0.00 | 0.00 | 96 | 1011.3 |
| 20260906140036 | 78 | 113 | 1.7 | 5.2 | 0.00 | 0.00 | 0.00 | 96 | 1011.2 |
| 20260906135533 | 78 | 158 | 1.7 | 10.4 | 0.00 | 0.00 | 0.00 | 97 | 1011.2 |
| 20260906135033 | 78 | 163 | 1.7 | 10.4 | 0.00 | 0.00 | 0.00 | 97 | 1011.2 |
| 20260906134534 | 78 | 148 | 1.7 | 6.1 | 0.00 | 0.00 | 0.00 | 97 | 1011.2 |
| 20260906134515 | 77 | 142 | 1.7 | 4.3 | 0.00 | 0.00 | 0.00 | 98 | 1011.0 |
| 20260906133536 | 77 | 144 | 1.7 | 6.1 | 0.00 | 0.00 | 0.00 | 98 | 1011.0 |
| 20260906133027 | 77 | 165 | 1.7 | 6.1 | 0.00 | 0.00 | 0.00 | 98 | 1011.0 |
| 20260906132521 | 77 | 141 | 1.7 | 6.1 | 0.00 | 0.00 | 0.00 | 98 | 1010.8 |
| 20260906132021 | 77 | 124 | 1.7 | 5.2 | 0.00 | 0.00 | 0.00 | 98 | 1010.8 |
| 20260906131521 | 77 | 133 | 1.7 | 5.2 | 0.00 | 0.00 | 0.00 | 99 | 1010.7 |
| 20260906131240 | 77 | 132 | 2.6 | 7.8 | 0.00 | 0.00 | 0.00 | 99 | 1010.7 |
| 20260906130509 | 77 | 152 | 2.6 | 7.8 | 0.00 | 0.00 | 0.00 | 99 | 1010.7 |
| 20260906130009 | 77 | 154 | 1.7 | 6.1 | 0.00 | 0.00 | 0.00 | 99 | 1010.7 |
| 20260906125511 | 77 | 103 | 1.7 | 5.2 | 0.00 | 0.00 | 0.00 | 99 | 1010.4 |
| 20260906125010 | 77 | 148 | 1.7 | 5.2 | 0.00 | 0.00 | 0.00 | 99 | 1010.4 |
| 20260906124510 | 77 | 133 | 1.7 | 4.3 | 0.00 | 0.00 | 0.00 | 99 | 1010.4 |
| 20260906124007 | 76 | 69 | 1.7 | 4.3 | 0.00 | 0.00 | 0.00 | 99 | 1010.4 |
| 20260906123506 | 76 | 134 | 1.7 | 5.2 | 0.00 | 0.00 | 0.00 | 99 | 1010.4 |
| 20260906123235 | 76 | 137 | 1.7 | 5.2 | 0.00 | 0.00 | 0.00 | 99 | 1010.4 |
| 20260906122507 | 76 | 134 | 1.7 | 4.3 | 0.00 | 0.00 | 0.00 | 99 | 1010.1 |
| 20260906122002 | 76 | 86 | 1.7 | 4.3 | 0.00 | 0.00 | 0.00 | 99 | 1010.1 |
| 20260906121451 | 76 | 166 | 0.9 | 3.5 | 0.00 | 0.00 | 0.00 | 99 | 1010.1 |
| 20260906120938 | 76 | 135 | 0.9 | 4.3 | 0.00 | 0.00 | 0.00 | 99 | 1009.9 |
| 20260906120915 | 76 | 144 | 1.7 | 4.3 | 0.00 | 0.00 | 0.00 | 99 | 1009.9 |
| 20260906115926 | 76 | 134 | 1.7 | 4.3 | 0.00 | 0.00 | 0.00 | 99 | 1009.9 |
| 20260906115419 | 76 | 115 | 1.7 | 4.3 | 0.00 | 0.00 | 0.00 | 99 | 1009.7 |
| 20260906114921 | 76 | 145 | 1.7 | 4.3 | 0.00 | 0.00 | 0.00 | 99 | 1009.7 |
| 20260906114413 | 76 | 117 | 1.7 | 5.2 | 0.00 | 0.00 | 0.00 | 99 | 1009.7 |
| 20260906113910 | 76 | 111 | 1.7 | 5.2 | 0.00 | 0.00 | 0.00 | 99 | 1009.5 |
| 20260906113410 | 76 | 77 | 1.7 | 5.2 | 0.00 | 0.00 | 0.00 | 99 | 1009.5 |
| 20260906112910 | 76 | 146 | 1.7 | 5.2 | 0.00 | 0.00 | 0.00 | 99 | 1009.5 |
| 20260906112412 | 76 | 153 | 1.7 | 4.3 | 0.00 | 0.00 | 0.00 | 99 | 1009.7 |
| 20260906111908 | 76 | 126 | 1.7 | 5.2 | 0.00 | 0.00 | 0.00 | 98 | 1009.7 |
| 20260906111623 | 76 | 116 | 1.7 | 5.2 | 0.00 | 0.00 | 0.00 | 98 | 1009.7 |
| 20260906110906 | 76 | 105 | 2.6 | 6.1 | 0.00 | 0.00 | 0.00 | 98 | 1009.6 |
| 20260906110408 | 76 | 127 | 2.6 | 6.1 | 0.00 | 0.00 | 0.00 | 98 | 1009.6 |
| 20260906105906 | 76 | 101 | 2.6 | 7.0 | 0.00 | 0.00 | 0.00 | 98 | 1009.6 |
| 20260906105636 | 76 | 126 | 2.6 | 7.0 | 0.00 | 0.00 | 0.00 | 98 | 1009.3 |
| 20260906104905 | 76 | 79 | 2.6 | 5.2 | 0.00 | 0.00 | 0.00 | 98 | 1009.3 |
| 20260906104405 | 76 | 158 | 1.7 | 4.3 | 0.00 | 0.00 | 0.00 | 97 | 1009.3 |
| 20260906103901 | 75 | 55 | 2.6 | 7.8 | 0.00 | 0.00 | 0.00 | 97 | 1009.3 |
| 20260906103355 | 75 | 93 | 2.6 | 7.8 | 0.00 | 0.00 | 0.00 | 97 | 1009.3 |
| 20260906102849 | 75 | 118 | 1.7 | 7.8 | 0.00 | 0.00 | 0.00 | 96 | 1009.3 |
| 20260906102343 | 75 | 112 | 1.7 | 7.8 | 0.00 | 0.00 | 0.00 | 96 | 1009.2 |
| 20260906102051 | 75 | 63 | 1.7 | 5.2 | 0.00 | 0.00 | 0.00 | 96 | 1009.2 |
| 20260906101332 | 76 | 116 | 1.7 | 5.2 | 0.00 | 0.00 | 0.00 | 96 | 1009.2 |
| 20260906100831 | 76 | 87 | 0.9 | 4.3 | 0.00 | 0.00 | 0.00 | 96 | 1009.3 |
| 20260906100334 | 76 | 75 | 0.9 | 4.3 | 0.00 | 0.00 | 0.00 | 96 | 1009.3 |
| 20260906095824 | 76 | 75 | 0.9 | 4.3 | 0.00 | 0.00 | 0.00 | 96 | 1009.3 |
| 20260906095321 | 76 | 110 | 0.9 | 2.6 | 0.00 | 0.00 | 0.00 | 96 | 1009.2 |
| 20260906094822 | 76 | 98 | 0.9 | 2.6 | 0.00 | 0.00 | 0.00 | 96 | 1009.2 |
| 20260906094253 | 76 | 130 | 0.9 | 3.5 | 0.00 | 0.00 | 0.00 | 96 | 1009.1 |
| 20260906093750 | 76 | 152 | 0.9 | 3.5 | 0.00 | 0.00 | 0.00 | 96 | 1009.1 |
| 20260906093251 | 76 | 143 | 0.9 | 3.5 | 0.00 | 0.00 | 0.00 | 96 | 1009.1 |
| 20260906093012 | 76 | 126 | 0.0 | 2.6 | 0.00 | 0.00 | 0.00 | 96 | 1009.1 |
| 20260906092249 | 76 | 84 | 0.0 | 0.9 | 0.00 | 0.00 | 0.00 | 95 | 1009.1 |
| 20260906091752 | 76 | 84 | 0.0 | 0.0 | 0.00 | 0.00 | 0.00 | 95 | 1009.1 |
| 20260906091249 | 76 | 84 | 0.0 | 1.7 | 0.00 | 0.00 | 0.00 | 95 | 1008.9 |
| 20260906090745 | 76 | 84 | 0.9 | 1.7 | 0.00 | 0.00 | 0.00 | 95 | 1008.9 |
| 20260906090713 | 76 | 84 | 0.0 | 1.7 | 0.00 | 0.00 | 0.00 | 95 | 1008.9 |
| 20260906085951 | 76 | 128 | 0.0 | 2.6 | 0.00 | 0.00 | 0.00 | 95 | 1008.8 |
| 20260906085217 | 76 | 103 | 0.9 | 2.6 | 0.00 | 0.00 | 0.00 | 95 | 1008.8 |
| 20260906084658 | 76 | 132 | 0.9 | 1.7 | 0.00 | 0.00 | 0.00 | 95 | 1008.8 |
| 20260906084158 | 76 | 148 | 0.9 | 2.6 | 0.00 | 0.00 | 0.00 | 95 | 1008.8 |
| 20260906083638 | 76 | 148 | 0.9 | 3.5 | 0.00 | 0.00 | 0.00 | 95 | 1008.8 |
| 20260906083124 | 76 | 103 | 0.9 | 3.5 | 0.00 | 0.00 | 0.00 | 95 | 1008.8 |
| 20260906082617 | 76 | 93 | 0.9 | 3.5 | 0.00 | 0.00 | 0.00 | 94 | 1008.7 |
| 20260906082111 | 76 | 127 | 0.9 | 4.3 | 0.00 | 0.00 | 0.00 | 94 | 1008.7 |
| 20260906081605 | 76 | 130 | 0.9 | 4.3 | 0.00 | 0.00 | 0.00 | 94 | 1008.7 |
| 20260906081100 | 76 | 116 | 0.9 | 4.3 | 0.00 | 0.00 | 0.00 | 94 | 1008.8 |
| 20260906080549 | 76 | 146 | 0.9 | 4.3 | 0.00 | 0.00 | 0.00 | 95 | 1008.8 |
| 20260906080048 | 76 | 150 | 1.7 | 3.5 | 0.00 | 0.00 | 0.00 | 94 | 1008.8 |
| 20260906075545 | 76 | 115 | 0.9 | 3.5 | 0.00 | 0.00 | 0.00 | 94 | 1008.8 |
| 20260906075040 | 76 | 102 | 0.9 | 2.6 | 0.00 | 0.00 | 0.00 | 94 | 1008.8 |
| 20260906074540 | 76 | 148 | 0.9 | 3.5 | 0.00 | 0.00 | 0.00 | 94 | 1008.8 |
| 20260906074018 | 77 | 92 | 0.9 | 3.5 | 0.00 | 0.00 | 0.00 | 94 | 1008.9 |
| 20260906073517 | 77 | 138 | 0.9 | 3.5 | 0.00 | 0.00 | 0.00 | 94 | 1008.9 |
| 20260906073011 | 77 | 153 | 0.9 | 2.6 | 0.00 | 0.00 | 0.00 | 94 | 1008.9 |
| 20260906072505 | 77 | 134 | 0.9 | 3.5 | 0.00 | 0.00 | 0.00 | 93 | 1009.0 |
| 20260906071959 | 77 | 134 | 0.9 | 3.5 | 0.00 | 0.00 | 0.00 | 93 | 1009.0 |
| 20260906071937 | 77 | 143 | 0.9 | 4.3 | 0.00 | 0.00 | 0.00 | 93 | 1009.0 |
| 20260906070947 | 77 | 135 | 0.9 | 4.3 | 0.00 | 0.00 | 0.00 | 93 | 1009.4 |
| 20260906070439 | 77 | 157 | 0.9 | 3.5 | 0.00 | 0.00 | 0.00 | 93 | 1009.4 |
| 20260906065935 | 77 | 114 | 0.9 | 3.5 | 0.00 | 0.00 | 0.00 | 93 | 1009.4 |
| 20260906065429 | 77 | 155 | 0.9 | 2.6 | 0.00 | 0.00 | 0.00 | 93 | 1009.4 |
| 20260906065158 | 77 | 130 | 0.9 | 3.5 | 0.00 | 0.00 | 0.00 | 93 | 1009.4 |
| 20260906064905 | 77 | 163 | 1.7 | 3.5 | 0.00 | 0.00 | 0.00 | 93 | 1009.4 |
| 20260906063906 | 77 | 112 | 0.9 | 3.5 | 0.00 | 0.00 | 0.00 | 92 | 1009.5 |
| 20260906063405 | 77 | 132 | 0.9 | 3.5 | 0.00 | 0.00 | 0.00 | 92 | 1009.5 |
| 20260906062900 | 77 | 138 | 0.9 | 1.7 | 0.00 | 0.00 | 0.00 | 92 | 1009.5 |
| 20260906062620 | 78 | 120 | 0.9 | 2.6 | 0.00 | 0.00 | 0.00 | 92 | 1009.4 |
| 20260906061847 | 78 | 140 | 0.9 | 3.5 | 0.00 | 0.00 | 0.00 | 92 | 1009.4 |
| 20260906061344 | 78 | 126 | 1.7 | 3.5 | 0.00 | 0.00 | 0.00 | 92 | 1009.4 |
| 20260906060836 | 78 | 125 | 1.7 | 3.5 | 0.00 | 0.00 | 0.00 | 92 | 1009.4 |
| 20260906060324 | 78 | 142 | 1.7 | 3.5 | 0.00 | 0.00 | 0.00 | 92 | 1009.4 |
| 20260906055825 | 78 | 111 | 0.9 | 3.5 | 0.00 | 0.00 | 0.00 | 91 | 1009.4 |
| 20260906055317 | 78 | 139 | 0.9 | 3.5 | 0.00 | 0.00 | 0.00 | 91 | 1009.6 |
| 20260906054811 | 78 | 118 | 0.9 | 2.6 | 0.00 | 0.00 | 0.00 | 91 | 1009.6 |
| 20260906054305 | 78 | 117 | 0.9 | 4.3 | 0.00 | 0.00 | 0.00 | 91 | 1009.6 |
| 20260906053754 | 78 | 146 | 1.7 | 4.3 | 0.00 | 0.00 | 0.00 | 90 | 1009.4 |
| 20260906053255 | 78 | 119 | 1.7 | 3.5 | 0.00 | 0.00 | 0.00 | 90 | 1009.4 |
| 20260906052750 | 78 | 143 | 1.7 | 3.5 | 0.00 | 0.00 | 0.00 | 90 | 1009.2 |
| 20260906052241 | 79 | 138 | 1.7 | 3.5 | 0.00 | 0.00 | 0.00 | 89 | 1009.2 |
| 20260906051735 | 79 | 140 | 1.7 | 3.5 | 0.00 | 0.00 | 0.00 | 89 | 1009.2 |
| 20260906051224 | 79 | 119 | 0.9 | 3.5 | 0.00 | 0.00 | 0.00 | 89 | 1009.4 |
| 20260906050953 | 79 | 118 | 0.9 | 3.5 | 0.00 | 0.00 | 0.00 | 88 | 1009.4 |
| 20260906050219 | 79 | 98 | 0.9 | 4.3 | 0.00 | 0.00 | 0.00 | 88 | 1009.4 |
| 20260906045937 | 79 | 107 | 0.9 | 4.3 | 0.00 | 0.00 | 0.00 | 88 | 1009.5 |
| 20260906045216 | 79 | 161 | 0.9 | 3.5 | 0.00 | 0.00 | 0.00 | 88 | 1009.6 |
| 20260906044700 | 79 | 135 | 0.9 | 2.6 | 0.00 | 0.00 | 0.00 | 88 | 1009.6 |
| 20260906044421 | 79 | 144 | 0.9 | 2.6 | 0.00 | 0.00 | 0.00 | 87 | 1009.5 |
| 20260906043648 | 79 | 79 | 1.7 | 3.5 | 0.00 | 0.00 | 0.00 | 87 | 1009.5 |
| 20260906043357 | 80 | 65 | 1.7 | 3.5 | 0.00 | 0.00 | 0.00 | 87 | 1009.5 |
| 20260906042639 | 80 | 124 | 0.9 | 3.5 | 0.00 | 0.00 | 0.00 | 87 | 1009.6 |
| 20260906042133 | 80 | 134 | 1.7 | 3.5 | 0.00 | 0.00 | 0.00 | 86 | 1009.6 |
| 20260906041624 | 80 | 146 | 1.7 | 3.5 | 0.00 | 0.00 | 0.00 | 86 | 1009.6 |
| 20260906041118 | 80 | 112 | 1.7 | 3.5 | 0.00 | 0.00 | 0.00 | 86 | 1009.6 |
| 20260906040606 | 80 | 101 | 0.9 | 3.5 | 0.00 | 0.00 | 0.00 | 85 | 1009.6 |
| 20260906040328 | 80 | 86 | 0.9 | 4.3 | 0.00 | 0.00 | 0.00 | 84 | 1009.6 |
| 20260906035558 | 80 | 92 | 0.9 | 4.3 | 0.00 | 0.00 | 0.00 | 84 | 1009.3 |
| 20260906035314 | 80 | 109 | 1.7 | 4.3 | 0.00 | 0.00 | 0.00 | 84 | 1009.4 |
| 20260906034549 | 81 | 161 | 1.7 | 4.3 | 0.00 | 0.00 | 0.00 | 83 | 1009.4 |
| 20260906034040 | 81 | 123 | 1.7 | 5.2 | 0.00 | 0.00 | 0.00 | 83 | 1009.2 |
| 20260906033529 | 81 | 121 | 2.6 | 5.2 | 0.00 | 0.00 | 0.00 | 83 | 1009.2 |
| 20260906033249 | 81 | 98 | 2.6 | 5.2 | 0.00 | 0.00 | 0.00 | 83 | 1009.2 |
| 20260906032521 | 81 | 80 | 1.7 | 5.2 | 0.00 | 0.00 | 0.00 | 83 | 1009.0 |
| 20260906032016 | 81 | 119 | 1.7 | 5.2 | 0.00 | 0.00 | 0.00 | 83 | 1009.0 |
| 20260906031514 | 81 | 69 | 1.7 | 5.2 | 0.00 | 0.00 | 0.00 | 83 | 1009.0 |
| 20260906031016 | 81 | 70 | 1.7 | 7.0 | 0.00 | 0.00 | 0.00 | 83 | 1009.2 |
| 20260906030514 | 81 | 112 | 2.6 | 7.0 | 0.00 | 0.00 | 0.00 | 83 | 1009.2 |
| 20260906030016 | 81 | 92 | 1.7 | 6.1 | 0.00 | 0.00 | 0.00 | 82 | 1009.2 |
| 20260906025517 | 81 | 80 | 1.7 | 3.5 | 0.00 | 0.00 | 0.00 | 82 | 1009.1 |
| 20260906025007 | 82 | 141 | 1.7 | 5.2 | 0.00 | 0.00 | 0.00 | 82 | 1009.2 |
| 20260906024459 | 82 | 109 | 1.7 | 5.2 | 0.00 | 0.00 | 0.00 | 81 | 1009.2 |
| 20260906024000 | 82 | 98 | 0.9 | 4.3 | 0.00 | 0.00 | 0.00 | 81 | 1008.9 |
| 20260906023455 | 82 | 119 | 1.7 | 4.3 | 0.00 | 0.00 | 0.00 | 81 | 1008.9 |
| 20260906022954 | 82 | 88 | 1.7 | 4.3 | 0.00 | 0.00 | 0.00 | 80 | 1008.9 |
| 20260906022451 | 82 | 57 | 1.7 | 4.3 | 0.00 | 0.00 | 0.00 | 80 | 1008.7 |
| 20260906021947 | 83 | 92 | 1.7 | 4.3 | 0.00 | 0.00 | 0.00 | 79 | 1008.7 |
| 20260906021714 | 83 | 88 | 1.7 | 4.3 | 0.00 | 0.00 | 0.00 | 79 | 1008.7 |
| 20260906021424 | 83 | 128 | 1.7 | 4.3 | 0.00 | 0.00 | 0.00 | 78 | 1008.8 |
| 20260906020702 | 83 | 105 | 0.9 | 3.5 | 0.00 | 0.00 | 0.00 | 78 | 1008.8 |
| 20260906015922 | 83 | 116 | 0.9 | 3.5 | 0.00 | 0.00 | 0.00 | 78 | 1008.8 |
| 20260906015418 | 83 | 89 | 1.7 | 3.5 | 0.00 | 0.00 | 0.00 | 78 | 1008.4 |
| 20260906014917 | 83 | 86 | 1.7 | 3.5 | 0.00 | 0.00 | 0.00 | 78 | 1008.4 |
| 20260906014639 | 83 | 88 | 1.7 | 3.5 | 0.00 | 0.00 | 0.00 | 77 | 1008.4 |
| 20260906013904 | 83 | 50 | 1.7 | 3.5 | 0.00 | 0.00 | 0.00 | 77 | 1008.3 |
| 20260906013350 | 83 | 105 | 0.9 | 2.6 | 0.00 | 0.00 | 0.00 | 77 | 1008.3 |
| 20260906012851 | 84 | 93 | 0.9 | 3.5 | 0.00 | 0.00 | 0.00 | 77 | 1008.4 |
| 20260906012349 | 84 | 118 | 0.9 | 3.5 | 0.00 | 0.00 | 0.00 | 76 | 1007.9 |
| 20260906011853 | 84 | 91 | 0.9 | 3.5 | 0.00 | 0.00 | 0.00 | 76 | 1007.9 |
| 20260906011338 | 85 | 84 | 1.7 | 3.5 | 0.00 | 0.00 | 0.00 | 75 | 1007.9 |
| 20260906010835 | 85 | 121 | 1.7 | 3.5 | 0.00 | 0.00 | 0.00 | 75 | 1007.9 |
| 20260906010335 | 85 | 80 | 0.9 | 3.5 | 0.00 | 0.00 | 0.00 | 74 | 1007.9 |
| 20260906010306 | 85 | 114 | 0.9 | 3.5 | 0.00 | 0.00 | 0.00 | 74 | 1008.0 |
| 20260906005545 | 85 | 94 | 1.7 | 3.5 | 0.00 | 0.00 | 0.00 | 73 | 1008.0 |
| 20260906004809 | 85 | 113 | 1.7 | 4.3 | 0.00 | 0.00 | 0.00 | 73 | 1008.0 |
| 20260906004757 | 86 | 120 | 1.7 | 4.3 | 0.00 | 0.00 | 0.00 | 72 | 1008.1 |
| 20260906003753 | 86 | 109 | 1.7 | 3.5 | 0.00 | 0.00 | 0.00 | 71 | 1008.1 |
| 20260906003251 | 87 | 103 | 1.7 | 4.3 | 0.00 | 0.00 | 0.00 | 70 | 1008.3 |
| 20260906002748 | 87 | 118 | 0.9 | 4.3 | 0.00 | 0.00 | 0.00 | 69 | 1008.3 |
| 20260906002239 | 87 | 115 | 0.9 | 3.5 | 0.00 | 0.00 | 0.00 | 69 | 1008.3 |
| 20260906001734 | 87 | 117 | 0.9 | 2.6 | 0.00 | 0.00 | 0.00 | 68 | 1008.3 |
| 20260906001228 | 88 | 117 | 1.7 | 4.3 | 0.00 | 0.00 | 0.00 | 67 | 1008.1 |
| 20260906000724 | 88 | 90 | 2.6 | 4.3 | 0.00 | 0.00 | 0.00 | 67 | 1008.3 |
| 20260906000212 | 88 | 113 | 1.7 | 4.3 | 0.00 | 0.00 | 0.00 | 66 | 1008.3 |
| 20260905235709 | 89 | 55 | 0.9 | 3.5 | 0.00 | 0.00 | 0.00 | 65 | 1008.5 |
| 20260905235204 | 89 | 110 | 0.9 | 4.3 | 0.00 | 0.00 | 0.00 | 64 | 1008.5 |
| 20260905234700 | 89 | 137 | 1.7 | 5.2 | 0.00 | 0.00 | 0.00 | 63 | 1008.5 |
| 20260905234151 | 89 | 102 | 1.7 | 5.2 | 0.00 | 0.00 | 0.00 | 63 | 1008.1 |
| 20260905233641 | 89 | 58 | 1.7 | 6.1 | 0.00 | 0.00 | 0.00 | 63 | 1008.1 |
| 20260905233342 | 89 | 123 | 1.7 | 3.5 | 0.00 | 0.00 | 0.00 | 63 | 1008.1 |
| 20260905233221 | 89 | 88 | 1.7 | 6.1 | 0.00 | 0.00 | 0.00 | 63 | 1008.3 |
| 20260905232127 | 90 | 119 | 1.7 | 3.5 | 0.00 | 0.00 | 0.00 | 62 | 1008.1 |
| 20260905232104 | 90 | 90 | 0.9 | 2.6 | 0.00 | 0.00 | 0.00 | 62 | 1008.1 |
| 20260905231115 | 90 | 90 | 1.7 | 4.3 | 0.00 | 0.00 | 0.00 | 61 | 1008.0 |
| 20260905230609 | 90 | 115 | 1.7 | 4.3 | 0.00 | 0.00 | 0.00 | 62 | 1008.0 |
| 20260905230059 | 90 | 100 | 1.7 | 6.1 | 0.00 | 0.00 | 0.00 | 61 | 1008.0 |
| 20260905225600 | 90 | 152 | 2.6 | 6.1 | 0.00 | 0.00 | 0.00 | 60 | 1007.8 |
| 20260905225054 | 90 | 93 | 1.7 | 5.2 | 0.00 | 0.00 | 0.00 | 60 | 1007.8 |
| 20260905224542 | 90 | 199 | 1.7 | 6.1 | 0.00 | 0.00 | 0.00 | 60 | 1007.8 |
| 20260905224043 | 90 | 88 | 2.6 | 7.8 | 0.00 | 0.00 | 0.00 | 60 | 1007.8 |
| 20260905223530 | 90 | 127 | 2.6 | 7.8 | 0.00 | 0.00 | 0.00 | 59 | 1007.8 |
| 20260905223240 | 90 | 113 | 2.6 | 6.1 | 0.00 | 0.00 | 0.00 | 59 | 1007.8 |
| 20260905222517 | 90 | 88 | 2.6 | 5.2 | 0.00 | 0.00 | 0.00 | 58 | 1007.7 |
| 20260905222007 | 90 | 140 | 2.6 | 7.8 | 0.00 | 0.00 | 0.00 | 58 | 1007.7 |
| 20260905221505 | 89 | 125 | 2.6 | 7.8 | 0.00 | 0.00 | 0.00 | 59 | 1007.7 |
| 20260905220959 | 89 | 105 | 2.6 | 7.8 | 0.00 | 0.00 | 0.00 | 60 | 1007.7 |
| 20260905220448 | 89 | 156 | 2.6 | 6.1 | 0.00 | 0.00 | 0.00 | 59 | 1007.8 |
| 20260905215947 | 90 | 105 | 2.6 | 7.8 | 0.00 | 0.00 | 0.00 | 59 | 1007.8 |
| 20260905215442 | 90 | 111 | 2.6 | 7.8 | 0.00 | 0.00 | 0.00 | 58 | 1007.8 |
| 20260905214935 | 90 | 97 | 2.6 | 6.1 | 0.00 | 0.00 | 0.00 | 57 | 1007.8 |
| 20260905214655 | 90 | 103 | 2.6 | 8.7 | 0.00 | 0.00 | 0.00 | 60 | 1007.8 |
| 20260905213923 | 90 | 166 | 3.5 | 8.7 | 0.00 | 0.00 | 0.00 | 58 | 1008.3 |
| 20260905213417 | 90 | 132 | 3.5 | 7.8 | 0.00 | 0.00 | 0.00 | 60 | 1008.3 |
| 20260905213137 | 90 | 134 | 2.6 | 6.1 | 0.00 | 0.00 | 0.00 | 59 | 1008.3 |
| 20260905212405 | 90 | 76 | 2.6 | 7.8 | 0.00 | 0.00 | 0.00 | 60 | 1008.4 |
| 20260905211859 | 90 | 145 | 3.5 | 7.8 | 0.00 | 0.00 | 0.00 | 59 | 1008.4 |
| 20260905211354 | 90 | 107 | 2.6 | 6.1 | 0.00 | 0.00 | 0.00 | 60 | 1008.4 |
| 20260905210847 | 90 | 108 | 2.6 | 6.1 | 0.00 | 0.00 | 0.00 | 61 | 1008.8 |
| 20260905210335 | 89 | 134 | 2.6 | 7.0 | 0.00 | 0.00 | 0.00 | 62 | 1008.7 |
| 20260905205835 | 89 | 170 | 2.6 | 7.0 | 0.00 | 0.00 | 0.00 | 62 | 1008.7 |
| 20260905205329 | 89 | 122 | 3.5 | 9.6 | 0.00 | 0.00 | 0.00 | 62 | 1008.9 |
| 20260905204823 | 89 | 126 | 2.6 | 9.6 | 0.00 | 0.00 | 0.00 | 61 | 1008.9 |
| 20260905204317 | 89 | 144 | 2.6 | 5.2 | 0.00 | 0.00 | 0.00 | 62 | 1008.9 |
| 20260905203816 | 89 | 139 | 2.6 | 5.2 | 0.00 | 0.00 | 0.00 | 62 | 1009.0 |
| 20260905203315 | 89 | 117 | 2.6 | 6.1 | 0.00 | 0.00 | 0.00 | 62 | 1009.0 |
| 20260905202812 | 88 | 98 | 1.7 | 6.1 | 0.00 | 0.00 | 0.00 | 65 | 1008.9 |
| 20260905202313 | 88 | 217 | 2.6 | 6.1 | 0.00 | 0.00 | 0.00 | 63 | 1009.2 |
| 20260905201812 | 88 | 124 | 2.6 | 6.1 | 0.00 | 0.00 | 0.00 | 64 | 1009.2 |
| 20260905201310 | 87 | 75 | 2.6 | 8.7 | 0.00 | 0.00 | 0.00 | 67 | 1009.2 |
| 20260905200810 | 87 | 94 | 3.5 | 9.6 | 0.00 | 0.00 | 0.00 | 65 | 1009.4 |
| 20260905200308 | 87 | 173 | 3.5 | 9.6 | 0.00 | 0.00 | 0.00 | 64 | 1009.4 |
| 20260905195808 | 87 | 101 | 3.5 | 7.8 | 0.00 | 0.00 | 0.00 | 63 | 1009.4 |
| 20260905195309 | 87 | 80 | 2.6 | 7.8 | 0.00 | 0.00 | 0.00 | 65 | 1009.6 |
| 20260905194806 | 87 | 109 | 2.6 | 6.1 | 0.00 | 0.00 | 0.00 | 64 | 1009.6 |
| 20260905194534 | 86 | 140 | 2.6 | 10.4 | 0.00 | 0.00 | 0.00 | 66 | 1009.6 |
| 20260905193806 | 86 | 96 | 3.5 | 10.4 | 0.00 | 0.00 | 0.00 | 64 | 1009.9 |
| 20260905193305 | 86 | 84 | 2.6 | 7.8 | 0.00 | 0.00 | 0.00 | 65 | 1009.9 |
| 20260905192804 | 85 | 82 | 2.6 | 8.7 | 0.00 | 0.00 | 0.00 | 67 | 1010.0 |
| 20260905192306 | 85 | 84 | 2.6 | 8.7 | 0.00 | 0.00 | 0.00 | 68 | 1009.9 |
| 20260905191804 | 84 | 10 | 1.7 | 3.5 | 0.00 | 0.00 | 0.00 | 69 | 1009.9 |
| 20260905191305 | 83 | 105 | 2.6 | 6.1 | 0.00 | 0.00 | 0.00 | 69 | 1010.1 |
| 20260905190801 | 83 | 43 | 2.6 | 7.8 | 0.00 | 0.00 | 0.00 | 68 | 1010.1 |
| 20260905190256 | 83 | 114 | 2.6 | 7.8 | 0.00 | 0.00 | 0.00 | 68 | 1010.1 |
| 20260905185749 | 83 | 152 | 2.6 | 7.8 | 0.00 | 0.00 | 0.00 | 67 | 1010.5 |
| 20260905185503 | 83 | 22 | 2.6 | 7.8 | 0.00 | 0.00 | 0.00 | 66 | 1010.5 |
| 20260905184733 | 83 | 355 | 3.5 | 10.4 | 0.00 | 0.00 | 0.00 | 65 | 1010.5 |
| 20260905184231 | 84 | 99 | 3.5 | 10.4 | 0.00 | 0.00 | 0.00 | 65 | 1010.7 |
| 20260905183725 | 84 | 68 | 3.5 | 9.6 | 0.00 | 0.00 | 0.00 | 63 | 1010.7 |
| 20260905183219 | 84 | 130 | 3.5 | 7.8 | 0.00 | 0.00 | 0.00 | 64 | 1010.8 |
| 20260905182713 | 84 | 103 | 4.3 | 10.4 | 0.00 | 0.00 | 0.00 | 66 | 1010.8 |
| 20260905182203 | 83 | 342 | 4.3 | 10.4 | 0.00 | 0.00 | 0.00 | 65 | 1010.8 |
| 20260905181701 | 83 | 355 | 4.3 | 10.4 | 0.00 | 0.00 | 0.00 | 64 | 1010.7 |
| 20260905181155 | 83 | 16 | 3.5 | 10.4 | 0.00 | 0.00 | 0.00 | 64 | 1010.6 |
| 20260905180649 | 83 | 99 | 3.5 | 10.4 | 0.00 | 0.00 | 0.00 | 65 | 1010.6 |
| 20260905180144 | 83 | 24 | 3.5 | 8.7 | 0.00 | 0.00 | 0.00 | 63 | 1010.6 |
| 20260905180112 | 83 | 340 | 3.5 | 9.6 | 0.00 | 0.00 | 0.00 | 63 | 1010.7 |